Flag for U.S.A. Weather past 2 weeks in Cheyenne, Wyoming, U.S.A.

Now
54 °F

Sunny.


Feels Like: 53 °F
Forecast: 39 / 56 °F
Wind: 5 mph from Northwest

Location: Cheyenne Airport

Current Time: May 24, 2015 at 10:16:23 AM

Latest Report: May 24, 2015 at 9:53 AM


Visibility: 10 mi

Pressure: 29.77 "Hg

Humidity: 57%

Dew point: 39 °F

Location of CheyenneLocation

Historic Weather in Cheyenne — Graph

°F

Cheyenne temperature yesterday

Maximum temperature yesterday: 56 °F (at 1:53 PM)
Minimum temperature yesterday: 42 °F (at 5:53 AM)
Average temperature yesterday: 48 °F

Past Weeks' High & Low Weather Summary

 TemperatureHumidityPressure
High69 °F (May 14, 1:53 PM)100% (May 21, 4:53 AM)30.31 "Hg (May 21, 4:53 AM)
Low24 °F (May 9, 10:02 PM)24% (May 14, 1:53 PM)29.53 "Hg (May 16, 12:53 PM)
Average44 °F76%29.97 "Hg
* Reported May 9 8:53 AM — May 24 8:53 AM, Cheyenne, Weather by CustomWeather, © 2015

Note: Actual official high and low records may vary slightly from our data, if they occured in-between our weather recording intervals... More about our weather records

Advertising

Cheyenne weather history for previous 24 hours

 ConditionsComfort  
Time TempWeatherWind HumidityBarometerVisibility
8:53 AM
Sun, May 24
51 °FSunny.No wind66%29.79 "Hg10 mi
7:53 AM46 °FSunny.No wind79%29.80 "Hg10 mi
6:53 AM41 °FSunny.5 mph93%29.84 "Hg10 mi
5:53 AM37 °FPassing clouds.No wind96%29.88 "Hg10 mi
4:53 AM39 °FClear.5 mph96%29.85 "Hg10 mi
4:00 AM39 °FFog.No wind93%29.92 "Hg1 mi
3:01 AM40 °FFog.5 mph97%29.93 "Hg2 mi
1:53 AM43 °FClear.No wind86%29.81 "Hg10 mi
12:53 AM44 °FPassing clouds.6 mph82%29.80 "Hg10 mi
11:58 PM
Sat, May 23
46 °FMostly cloudy.8 mph93%29.96 "Hg10 mi
10:53 PM46 °FMostly cloudy.5 mph89%29.84 "Hg10 mi
9:53 PM46 °FLow clouds.5 mph93%29.86 "Hg10 mi
8:53 PM47 °FMostly cloudy.8 mph90%29.86 "Hg10 mi
8:03 PM47 °FBroken clouds.7 mph86%29.95 "Hg10 mi
7:53 PM48 °FBroken clouds.7 mph83%29.85 "Hg10 mi
6:53 PM48 °FOvercast.3 mph83%29.83 "Hg10 mi
5:53 PM47 °FOvercast.14 mph90%29.83 "Hg10 mi
4:53 PM47 °FLight rain. Fog.16 mph90%29.88 "Hg3 mi
3:53 PM54 °FCloudy.8 mph69%29.83 "Hg10 mi
2:53 PM54 °FMore clouds than sun.3 mph67%29.83 "Hg10 mi
1:53 PM56 °FCloudy.12 mph67%29.84 "Hg10 mi
12:53 PM55 °FMostly cloudy.10 mph69%29.87 "Hg10 mi
11:53 AM52 °FCloudy.12 mph77%29.90 "Hg10 mi
10:53 AM52 °FMostly cloudy.12 mph75%29.90 "Hg10 mi
Weather by CustomWeather, © 2015

See weather overviewHow to use our weather pages